Time,TemperatureF,DewpointF,PressureIn,WindDirection,WindDirectionDegrees,WindSpeedMPH,WindSpeedGustMPH,Humidity,HourlyPrecipIn,Conditions,Clouds,dailyrainin,SoftwareType,DateUTC
2013-01-12 00:01:00,10.0,3.1,30.19,WSW,248,2.9,2.9,73,0.00,,---,0.00,VWS V13.01,2013-01-12 07:01:00,
2013-01-12 00:06:00,10.0,3.1,30.20,WSW,248,0.0,0.0,73,0.00,,---,0.00,VWS V13.01,2013-01-12 07:06:00,
2013-01-12 00:11:00,10.0,3.1,30.20,WSW,248,0.0,0.0,73,0.00,,---,0.00,VWS V13.01,2013-01-12 07:11:00,
2013-01-12 00:16:00,10.0,3.1,30.19,WSW,248,4.0,4.0,73,0.00,,---,0.00,VWS V13.01,2013-01-12 07:16:00,
2013-01-12 00:21:00,10.0,3.1,30.20,WSW,248,0.0,0.0,73,0.00,,---,0.00,VWS V13.01,2013-01-12 07:21:00,
2013-01-12 00:26:00,10.0,3.1,30.20,WSW,248,5.8,5.8,73,0.00,,---,0.00,VWS V13.01,2013-01-12 07:26:00,
2013-01-12 00:31:00,9.8,2.9,30.20,SW,225,4.2,4.2,73,0.00,,---,0.00,VWS V13.01,2013-01-12 07:31:00,
2013-01-12 00:36:00,9.6,2.7,30.20,WSW,248,0.0,0.0,73,0.00,,---,0.00,VWS V13.01,2013-01-12 07:36:00,
2013-01-12 00:41:00,9.6,2.7,30.20,WSW,248,0.0,0.0,73,0.00,,---,0.00,VWS V13.01,2013-01-12 07:41:00,
2013-01-12 00:46:00,9.6,2.7,30.20,WSW,248,4.0,4.0,73,0.00,,---,0.00,VWS V13.01,2013-01-12 07:46:00,
2013-01-12 00:51:00,9.6,2.7,30.21,WSW,248,0.0,0.0,73,0.00,,---,0.00,VWS V13.01,2013-01-12 07:51:00,
2013-01-12 00:56:00,9.6,2.7,30.20,WSW,248,0.0,0.0,73,0.00,,---,0.00,VWS V13.01,2013-01-12 07:56:00,
2013-01-12 01:01:00,9.5,2.6,30.20,SW,225,4.6,4.6,73,0.00,,---,0.00,VWS V13.01,2013-01-12 08:01:00,
2013-01-12 01:06:00,9.5,2.6,30.20,SSW,202,0.0,3.8,73,0.00,,---,0.00,VWS V13.01,2013-01-12 08:06:00,
2013-01-12 01:11:00,9.3,2.4,30.20,WSW,248,0.0,0.0,73,0.00,,---,0.00,VWS V13.01,2013-01-12 08:11:00,
2013-01-12 01:17:00,9.3,2.1,30.21,WSW,248,0.0,0.0,72,0.00,,---,0.00,VWS V13.01,2013-01-12 08:17:00,
2013-01-12 01:22:00,9.3,2.1,30.21,WSW,248,0.0,0.0,72,0.00,,---,0.00,VWS V13.01,2013-01-12 08:22:00,
2013-01-12 01:27:00,9.3,2.1,30.21,SW,225,0.0,0.0,72,0.00,,---,0.00,VWS V13.01,2013-01-12 08:27:00,
2013-01-12 01:32:00,9.3,2.1,30.21,SW,225,0.0,0.0,72,0.00,,---,0.00,VWS V13.01,2013-01-12 08:32:00,
2013-01-12 01:37:00,9.3,2.1,30.21,SW,225,0.0,0.0,72,0.00,,---,0.00,VWS V13.01,2013-01-12 08:37:00,
2013-01-12 01:42:00,9.3,2.1,30.21,SW,225,0.0,0.0,72,0.00,,---,0.00,VWS V13.01,2013-01-12 08:42:00,
2013-01-12 01:47:00,9.1,1.9,30.21,SW,225,0.0,0.0,72,0.00,,---,0.00,VWS V13.01,2013-01-12 08:47:00,
2013-01-12 01:52:00,9.1,1.9,30.21,SW,225,0.0,0.0,72,0.00,,---,0.00,VWS V13.01,2013-01-12 08:52:00,
2013-01-12 01:57:00,9.1,1.9,30.21,SW,225,0.0,0.0,72,0.00,,---,0.00,VWS V13.01,2013-01-12 08:57:00,
2013-01-12 02:02:00,9.1,1.9,30.21,SW,225,0.0,0.0,72,0.00,,---,0.00,VWS V13.01,2013-01-12 09:02:00,
2013-01-12 02:07:00,9.1,1.9,30.21,SW,225,0.0,0.0,72,0.00,,---,0.00,VWS V13.01,2013-01-12 09:07:00,
2013-01-12 02:12:00,9.1,1.9,30.21,SW,225,0.0,0.0,72,0.00,,---,0.00,VWS V13.01,2013-01-12 09:12:00,
2013-01-12 02:17:00,8.9,1.7,30.21,SSW,202,0.0,0.0,72,0.00,,---,0.00,VWS V13.01,2013-01-12 09:17:00,
2013-01-12 02:22:00,8.7,1.5,30.21,SSW,202,0.0,0.0,72,0.00,,---,0.00,VWS V13.01,2013-01-12 09:22:00,
2013-01-12 02:27:00,8.7,1.5,30.21,SSW,202,0.0,0.0,72,0.00,,---,0.00,VWS V13.01,2013-01-12 09:27:00,
2013-01-12 02:32:00,8.6,1.4,30.21,SSW,202,0.0,0.0,72,0.00,,---,0.00,VWS V13.01,2013-01-12 09:32:00,
2013-01-12 02:37:00,8.6,1.4,30.21,SSW,202,0.0,0.0,72,0.00,,---,0.00,VWS V13.01,2013-01-12 09:37:00,
2013-01-12 02:42:00,8.4,1.2,30.21,SSW,202,0.0,0.0,72,0.00,,---,0.00,VWS V13.01,2013-01-12 09:42:00,
2013-01-12 02:47:00,8.4,1.2,30.21,South,180,0.0,0.0,72,0.00,,---,0.00,VWS V13.01,2013-01-12 09:47:00,
2013-01-12 02:52:00,8.4,1.2,30.21,South,180,0.0,0.0,72,0.00,,---,0.00,VWS V13.01,2013-01-12 09:52:00,
2013-01-12 02:57:00,8.2,1.0,30.21,South,180,0.0,0.0,72,0.00,,---,0.00,VWS V13.01,2013-01-12 09:57:00,
2013-01-12 03:03:00,8.2,1.0,30.21,South,180,0.0,0.0,72,0.00,,---,0.00,VWS V13.01,2013-01-12 10:03:00,
2013-01-12 03:08:00,8.2,1.0,30.21,SSW,202,0.0,0.0,72,0.00,,---,0.00,VWS V13.01,2013-01-12 10:08:00,
2013-01-12 03:14:00,8.2,1.0,30.21,SSW,202,0.0,0.0,72,0.00,,---,0.00,VWS V13.01,2013-01-12 10:14:00,
2013-01-12 03:19:00,8.2,1.0,30.21,SSW,202,0.0,0.0,72,0.00,,---,0.00,VWS V13.01,2013-01-12 10:19:00,
2013-01-12 03:24:00,8.2,1.0,30.21,SSW,202,0.0,0.0,72,0.00,,---,0.00,VWS V13.01,2013-01-12 10:24:00,
2013-01-12 03:30:00,8.4,1.2,30.21,SSW,202,0.0,0.0,72,0.00,,---,0.00,VWS V13.01,2013-01-12 10:30:00,
2013-01-12 03:35:00,8.4,1.2,30.20,SSW,202,0.0,0.0,72,0.00,,---,0.00,VWS V13.01,2013-01-12 10:35:00,
2013-01-12 03:40:00,8.4,1.2,30.20,SSW,202,0.0,0.0,72,0.00,,---,0.00,VWS V13.01,2013-01-12 10:40:00,
2013-01-12 03:45:00,8.4,1.2,30.20,SSW,202,0.0,0.0,72,0.00,,---,0.00,VWS V13.01,2013-01-12 10:45:00,
2013-01-12 03:50:00,8.4,1.2,30.20,SSW,202,0.0,0.0,72,0.00,,---,0.00,VWS V13.01,2013-01-12 10:50:00,
2013-01-12 03:55:00,8.4,1.2,30.19,SSW,202,0.0,0.0,72,0.00,,---,0.00,VWS V13.01,2013-01-12 10:55:00,
2013-01-12 04:00:00,8.4,1.2,30.19,SSW,202,0.0,0.0,72,0.00,,---,0.00,VWS V13.01,2013-01-12 11:00:00,
2013-01-12 04:05:00,8.4,1.2,30.19,SSW,202,0.0,0.0,72,0.00,,---,0.00,VWS V13.01,2013-01-12 11:05:00,
2013-01-12 04:10:00,8.6,1.4,30.18,SSW,202,0.0,0.0,72,0.00,,---,0.00,VWS V13.01,2013-01-12 11:10:00,
2013-01-12 04:15:00,8.6,1.4,30.18,SSW,202,0.0,0.0,72,0.00,,---,0.00,VWS V13.01,2013-01-12 11:15:00,
2013-01-12 04:20:00,8.7,1.5,30.18,SSW,202,0.0,0.0,72,0.00,,---,0.00,VWS V13.01,2013-01-12 11:20:00,
2013-01-12 04:25:00,8.7,1.5,30.19,SSW,202,0.0,0.0,72,0.00,,---,0.00,VWS V13.01,2013-01-12 11:25:00,
2013-01-12 04:30:00,8.7,1.5,30.18,SSW,202,0.0,0.0,72,0.00,,---,0.00,VWS V13.01,2013-01-12 11:30:00,
2013-01-12 04:35:00,8.9,1.7,30.18,SSW,202,0.0,0.0,72,0.00,,---,0.00,VWS V13.01,2013-01-12 11:35:00,
2013-01-12 04:40:00,8.9,2.0,30.19,SSW,202,0.0,0.0,73,0.00,,---,0.00,VWS V13.01,2013-01-12 11:40:00,
2013-01-12 04:45:00,9.1,2.2,30.18,SSW,202,0.0,0.0,73,0.00,,---,0.00,VWS V13.01,2013-01-12 11:45:00,
2013-01-12 04:50:00,9.1,2.2,30.18,SSW,202,0.0,0.0,73,0.00,,---,0.00,VWS V13.01,2013-01-12 11:50:00,
2013-01-12 04:55:00,9.1,2.2,30.18,SSW,202,0.0,0.0,73,0.00,,---,0.00,VWS V13.01,2013-01-12 11:55:00,
2013-01-12 05:00:00,9.1,2.2,30.18,SSW,202,0.0,0.0,73,0.00,,---,0.00,VWS V13.01,2013-01-12 12:00:00,
2013-01-12 05:05:00,9.1,2.2,30.18,SSW,202,0.0,0.0,73,0.00,,---,0.00,VWS V13.01,2013-01-12 12:05:00,
2013-01-12 05:10:00,9.1,2.2,30.18,SSW,202,0.0,0.0,73,0.00,,---,0.00,VWS V13.01,2013-01-12 12:10:00,
2013-01-12 05:15:00,9.3,2.1,30.18,SSW,202,0.0,0.0,72,0.00,,---,0.00,VWS V13.01,2013-01-12 12:15:00,
2013-01-12 05:20:00,9.3,2.1,30.18,SSW,202,0.0,0.0,72,0.00,,---,0.00,VWS V13.01,2013-01-12 12:20:00,
2013-01-12 05:25:00,9.3,2.1,30.18,SSW,202,0.0,0.0,72,0.00,,---,0.00,VWS V13.01,2013-01-12 12:25:00,
2013-01-12 05:30:00,9.3,2.1,30.18,SSW,202,0.0,0.0,72,0.00,,---,0.00,VWS V13.01,2013-01-12 12:30:00,
2013-01-12 05:35:00,9.1,1.9,30.18,SSW,202,0.0,0.0,72,0.00,,---,0.00,VWS V13.01,2013-01-12 12:35:00,
2013-01-12 05:40:00,9.1,1.9,30.18,SSW,202,0.0,0.0,72,0.00,,---,0.00,VWS V13.01,2013-01-12 12:40:00,
2013-01-12 05:45:00,8.9,1.7,30.18,SSW,202,0.0,0.0,72,0.00,,---,0.00,VWS V13.01,2013-01-12 12:45:00,
2013-01-12 05:50:00,8.7,1.5,30.18,SSW,202,0.0,0.0,72,0.00,,---,0.00,VWS V13.01,2013-01-12 12:50:00,
2013-01-12 05:55:00,8.4,1.2,30.18,SSW,202,0.0,0.0,72,0.00,,---,0.00,VWS V13.01,2013-01-12 12:55:00,
2013-01-12 06:00:00,8.4,1.2,30.18,SSW,202,0.0,0.0,72,0.00,,---,0.00,VWS V13.01,2013-01-12 13:00:00,
2013-01-12 06:05:00,8.2,0.8,30.18,SSW,202,0.0,0.0,71,0.00,,---,0.00,VWS V13.01,2013-01-12 13:05:00,
2013-01-12 06:10:00,8.0,0.6,30.18,SSW,202,0.0,0.0,71,0.00,,---,0.00,VWS V13.01,2013-01-12 13:10:00,
2013-01-12 06:15:00,7.7,0.3,30.18,SSW,202,0.0,0.0,71,0.00,,---,0.00,VWS V13.01,2013-01-12 13:15:00,
2013-01-12 06:21:00,7.5,0.1,30.18,SSW,202,0.0,0.0,71,0.00,,---,0.00,VWS V13.01,2013-01-12 13:21:00,
2013-01-12 06:26:00,7.5,0.1,30.18,SSW,202,0.0,0.0,71,0.00,,---,0.00,VWS V13.01,2013-01-12 13:26:00,
2013-01-12 06:31:00,7.5,0.1,30.18,SSW,202,0.0,0.0,71,0.00,,---,0.00,VWS V13.01,2013-01-12 13:31:00,
2013-01-12 06:36:00,7.1,-0.3,30.18,SSW,202,0.0,0.0,71,0.00,,---,0.00,VWS V13.01,2013-01-12 13:36:00,
2013-01-12 06:41:00,6.6,-1.1,30.18,SSW,202,0.0,0.0,70,0.00,,---,0.00,VWS V13.01,2013-01-12 13:41:00,
2013-01-12 06:46:00,6.0,-2.0,30.18,South,180,0.0,0.0,69,0.00,,---,0.00,VWS V13.01,2013-01-12 13:46:00,
2013-01-12 06:51:00,5.9,-1.8,30.18,South,180,0.0,0.0,70,0.00,,---,0.00,VWS V13.01,2013-01-12 13:51:00,
2013-01-12 06:57:00,5.9,-1.5,30.17,SE,135,0.0,0.0,71,0.00,,---,0.00,VWS V13.01,2013-01-12 13:57:00,
2013-01-12 07:02:00,6.0,-1.4,30.18,SSE,158,0.0,0.0,71,0.00,,---,0.00,VWS V13.01,2013-01-12 14:02:00,
2013-01-12 07:07:00,5.9,-1.5,30.18,SSE,158,0.0,0.0,71,0.00,,---,0.00,VWS V13.01,2013-01-12 14:07:00,
2013-01-12 07:12:00,5.9,-1.5,30.18,SSE,158,0.0,0.0,71,0.00,,---,0.00,VWS V13.01,2013-01-12 14:12:00,
2013-01-12 07:18:00,5.7,-1.7,30.18,SSE,158,0.0,0.0,71,0.00,,---,0.00,VWS V13.01,2013-01-12 14:18:00,
2013-01-12 07:23:00,5.7,-1.7,30.18,SSE,158,0.0,0.0,71,0.00,,---,0.00,VWS V13.01,2013-01-12 14:23:00,
2013-01-12 07:28:00,5.7,-1.7,30.18,SSE,158,0.0,0.0,71,0.00,,---,0.00,VWS V13.01,2013-01-12 14:28:00,
2013-01-12 07:33:00,5.9,-1.5,30.18,SSE,158,0.0,0.0,71,0.00,,---,0.00,VWS V13.01,2013-01-12 14:33:00,
2013-01-12 07:38:00,5.9,-1.5,30.18,SSE,158,0.0,0.0,71,0.00,,---,0.00,VWS V13.01,2013-01-12 14:38:00,
2013-01-12 07:43:00,5.9,-1.5,30.18,SSE,158,0.0,0.0,71,0.00,,---,0.00,VWS V13.01,2013-01-12 14:43:00,
2013-01-12 07:48:00,5.9,-1.5,30.19,SSE,158,0.0,0.0,71,0.00,,---,0.00,VWS V13.01,2013-01-12 14:48:00,
2013-01-12 07:53:00,5.5,-1.9,30.19,SSE,158,0.0,0.0,71,0.00,,---,0.00,VWS V13.01,2013-01-12 14:53:00,
2013-01-12 07:58:00,5.3,-2.3,30.19,SSE,158,0.0,0.0,70,0.00,,---,0.00,VWS V13.01,2013-01-12 14:58:00,
2013-01-12 08:03:00,4.8,-2.8,30.19,SSE,158,0.0,0.0,70,0.00,,---,0.00,VWS V13.01,2013-01-12 15:03:00,
2013-01-12 08:08:00,4.6,-3.0,30.19,SSE,158,0.0,0.0,70,0.00,,---,0.00,VWS V13.01,2013-01-12 15:08:00,
2013-01-12 08:13:00,4.2,-3.4,30.19,SSE,158,0.0,0.0,70,0.00,,---,0.00,VWS V13.01,2013-01-12 15:13:00,
2013-01-12 08:18:00,3.9,-3.7,30.19,SSE,158,0.0,0.0,70,0.00,,---,0.00,VWS V13.01,2013-01-12 15:18:00,
2013-01-12 08:23:00,3.3,-4.6,30.19,SSE,158,0.0,0.0,69,0.00,,---,0.00,VWS V13.01,2013-01-12 15:23:00,
2013-01-12 08:28:00,3.0,-4.8,30.19,SSE,158,0.0,0.0,69,0.00,,---,0.00,VWS V13.01,2013-01-12 15:28:00,
2013-01-12 08:33:00,2.8,-5.1,30.19,SSE,158,0.0,0.0,69,0.00,,---,0.00,VWS V13.01,2013-01-12 15:33:00,
2013-01-12 08:38:00,2.8,-5.1,30.19,SSE,158,0.0,0.0,69,0.00,,---,0.00,VWS V13.01,2013-01-12 15:38:00,
2013-01-12 08:43:00,2.8,-5.1,30.19,SSE,158,0.0,0.0,69,0.00,,---,0.00,VWS V13.01,2013-01-12 15:43:00,
2013-01-12 08:48:00,2.8,-5.1,30.20,SSE,158,0.0,0.0,69,0.00,,---,0.00,VWS V13.01,2013-01-12 15:48:00,
2013-01-12 08:53:00,2.8,-4.8,30.20,SSE,158,0.0,0.0,70,0.00,,---,0.00,VWS V13.01,2013-01-12 15:53:00,
2013-01-12 08:59:00,2.8,-4.8,30.20,SSE,158,0.0,0.0,70,0.00,,---,0.00,VWS V13.01,2013-01-12 15:59:00,
2013-01-12 09:04:00,3.0,-4.6,30.20,SSE,158,0.0,0.0,70,0.00,,---,0.00,VWS V13.01,2013-01-12 16:04:00,
2013-01-12 09:09:00,3.0,-4.6,30.20,SSE,158,0.0,0.0,70,0.00,,---,0.00,VWS V13.01,2013-01-12 16:09:00,
2013-01-12 09:15:00,3.0,-4.6,30.20,SSE,158,0.0,0.0,70,0.00,,---,0.00,VWS V13.01,2013-01-12 16:15:00,
2013-01-12 09:20:00,3.3,-4.3,30.21,SSE,158,0.0,0.0,70,0.00,,---,0.00,VWS V13.01,2013-01-12 16:20:00,
2013-01-12 09:25:00,3.7,-3.6,30.21,SSE,158,0.0,0.0,71,0.00,,---,0.00,VWS V13.01,2013-01-12 16:25:00,
2013-01-12 09:30:00,3.9,-3.4,30.21,SSE,158,0.0,0.0,71,0.00,,---,0.00,VWS V13.01,2013-01-12 16:30:00,
2013-01-12 09:35:00,4.1,-3.2,30.20,SSE,158,0.0,0.0,71,0.00,,---,0.00,VWS V13.01,2013-01-12 16:35:00,
2013-01-12 09:40:00,4.4,-2.9,30.20,SSE,158,0.0,0.0,71,0.00,,---,0.00,VWS V13.01,2013-01-12 16:40:00,
2013-01-12 09:45:00,4.6,-2.7,30.20,SSE,158,0.0,0.0,71,0.00,,---,0.00,VWS V13.01,2013-01-12 16:45:00,
2013-01-12 09:50:00,4.8,-2.5,30.20,SSE,158,0.0,0.0,71,0.00,,---,0.00,VWS V13.01,2013-01-12 16:50:00,
2013-01-12 09:55:00,5.1,-1.9,30.20,SSE,158,0.0,0.0,72,0.00,,---,0.00,VWS V13.01,2013-01-12 16:55:00,
2013-01-12 10:00:00,5.5,-1.5,30.19,SSE,158,0.0,0.0,72,0.00,,---,0.00,VWS V13.01,2013-01-12 17:00:00,
2013-01-12 10:05:00,5.7,-1.4,30.20,SSE,158,0.0,0.0,72,0.00,,---,0.00,VWS V13.01,2013-01-12 17:05:00,
2013-01-12 10:10:00,6.4,-0.7,30.21,SSE,158,0.0,0.0,72,0.00,,---,0.00,VWS V13.01,2013-01-12 17:10:00,
2013-01-12 10:15:00,6.6,-0.5,30.20,South,180,1.3,1.3,72,0.00,,---,0.00,VWS V13.01,2013-01-12 17:15:00,
2013-01-12 10:20:00,6.9,-0.2,30.21,South,180,0.0,0.0,72,0.00,,---,0.00,VWS V13.01,2013-01-12 17:20:00,
2013-01-12 10:25:00,7.1,0.0,30.21,South,180,0.0,0.0,72,0.00,,---,0.00,VWS V13.01,2013-01-12 17:25:00,
2013-01-12 10:30:00,7.3,0.2,30.21,South,180,0.0,0.0,72,0.00,,---,0.00,VWS V13.01,2013-01-12 17:30:00,
2013-01-12 10:35:00,7.5,0.1,30.21,South,180,0.0,0.0,71,0.00,,---,0.00,VWS V13.01,2013-01-12 17:35:00,
2013-01-12 10:40:00,7.7,0.6,30.21,South,180,0.0,1.5,72,0.00,,---,0.00,VWS V13.01,2013-01-12 17:40:00,
2013-01-12 10:45:00,8.0,0.9,30.21,South,180,0.6,0.6,72,0.00,,---,0.00,VWS V13.01,2013-01-12 17:45:00,
2013-01-12 10:50:00,8.4,1.2,30.21,SSW,202,4.2,4.2,72,0.00,,---,0.00,VWS V13.01,2013-01-12 17:50:00,
2013-01-12 10:55:00,8.6,1.1,30.21,South,180,0.0,0.0,71,0.00,,---,0.00,VWS V13.01,2013-01-12 17:55:00,
2013-01-12 11:00:00,8.7,1.2,30.21,South,180,0.0,0.0,71,0.00,,---,0.00,VWS V13.01,2013-01-12 18:00:00,
2013-01-12 11:05:00,8.7,1.2,30.21,South,180,0.0,0.0,71,0.00,,---,0.00,VWS V13.01,2013-01-12 18:05:00,
2013-01-12 11:10:00,8.7,1.2,30.20,SSW,202,0.0,0.0,71,0.00,,---,0.00,VWS V13.01,2013-01-12 18:10:00,
2013-01-12 11:15:00,8.9,1.4,30.20,SSW,202,4.4,4.4,71,0.00,,---,0.00,VWS V13.01,2013-01-12 18:15:00,
2013-01-12 11:20:00,9.1,1.6,30.20,SW,225,0.0,0.0,71,0.00,,---,0.00,VWS V13.01,2013-01-12 18:20:00,
2013-01-12 11:25:00,9.1,1.6,30.20,SSW,202,1.3,1.3,71,0.00,,---,0.00,VWS V13.01,2013-01-12 18:25:00,
2013-01-12 11:30:00,9.3,1.8,30.20,SSW,202,0.0,0.0,71,0.00,,---,0.00,VWS V13.01,2013-01-12 18:30:00,
2013-01-12 11:35:00,9.3,1.8,30.19,SSW,202,0.0,0.0,71,0.00,,---,0.00,VWS V13.01,2013-01-12 18:35:00,
2013-01-12 11:40:00,9.5,1.7,30.20,SSW,202,0.0,0.0,70,0.00,,---,0.00,VWS V13.01,2013-01-12 18:40:00,
2013-01-12 11:45:00,9.5,1.7,30.20,SSW,202,0.0,0.0,70,0.00,,---,0.00,VWS V13.01,2013-01-12 18:45:00,
2013-01-12 11:51:00,9.5,1.7,30.19,SSW,202,5.8,5.8,70,0.00,,---,0.00,VWS V13.01,2013-01-12 18:51:00,
2013-01-12 11:56:00,9.6,1.5,30.19,SSW,202,2.0,2.0,69,0.00,,---,0.00,VWS V13.01,2013-01-12 18:56:00,
2013-01-12 12:01:00,9.6,1.5,30.19,South,180,3.1,3.1,69,0.00,,---,0.00,VWS V13.01,2013-01-12 19:01:00,
2013-01-12 12:06:00,9.6,1.5,30.19,SSW,202,0.0,0.0,69,0.00,,---,0.00,VWS V13.01,2013-01-12 19:06:00,
2013-01-12 12:11:00,9.6,1.5,30.19,SSE,158,0.0,0.0,69,0.00,,---,0.00,VWS V13.01,2013-01-12 19:11:00,
2013-01-12 12:16:00,9.6,1.5,30.19,SSE,158,0.0,0.0,69,0.00,,---,0.00,VWS V13.01,2013-01-12 19:16:00,
2013-01-12 12:21:00,9.6,1.5,30.19,South,180,0.0,0.0,69,0.00,,---,0.00,VWS V13.01,2013-01-12 19:21:00,
2013-01-12 12:26:00,9.6,1.5,30.19,South,180,0.0,0.0,69,0.00,,---,0.00,VWS V13.01,2013-01-12 19:26:00,
2013-01-12 12:31:00,9.6,1.5,30.19,SSW,202,1.3,1.3,69,0.00,,---,0.00,VWS V13.01,2013-01-12 19:31:00,
2013-01-12 12:36:00,10.0,1.9,30.18,SSW,202,1.3,1.3,69,0.00,,---,0.00,VWS V13.01,2013-01-12 19:36:00,
2013-01-12 12:42:00,10.2,2.4,30.18,South,180,0.0,0.0,70,0.00,,---,0.00,VWS V13.01,2013-01-12 19:42:00,
2013-01-12 12:47:00,10.5,2.4,30.18,SE,135,0.0,0.0,69,0.00,,---,0.00,VWS V13.01,2013-01-12 19:47:00,
2013-01-12 12:52:00,10.5,2.4,30.18,SE,135,0.0,0.0,69,0.00,,---,0.00,VWS V13.01,2013-01-12 19:52:00,
2013-01-12 12:57:00,10.7,2.5,30.18,SE,135,0.0,0.0,69,0.00,,---,0.00,VWS V13.01,2013-01-12 19:57:00,
2013-01-12 13:02:00,10.7,2.5,30.18,SSW,202,3.3,3.3,69,0.00,,---,0.00,VWS V13.01,2013-01-12 20:02:00,
2013-01-12 13:07:00,11.1,2.9,30.18,SSW,202,1.5,1.5,69,0.00,,---,0.00,VWS V13.01,2013-01-12 20:07:00,
2013-01-12 13:12:00,11.4,3.2,30.18,SSW,202,0.0,0.0,69,0.00,,---,0.00,VWS V13.01,2013-01-12 20:12:00,
2013-01-12 13:17:00,11.6,3.4,30.17,SSW,202,0.0,0.0,69,0.00,,---,0.00,VWS V13.01,2013-01-12 20:17:00,
2013-01-12 13:22:00,11.8,3.6,30.18,SSW,202,0.0,0.0,69,0.00,,---,0.00,VWS V13.01,2013-01-12 20:22:00,
2013-01-12 13:27:00,12.0,3.8,30.18,SSW,202,0.0,1.5,69,0.00,,---,0.00,VWS V13.01,2013-01-12 20:27:00,
2013-01-12 13:32:00,12.3,4.1,30.18,SSW,202,0.0,3.3,69,0.00,,---,0.00,VWS V13.01,2013-01-12 20:32:00,
2013-01-12 13:38:00,12.5,4.3,30.17,SSW,202,0.0,0.0,69,0.00,,---,0.00,VWS V13.01,2013-01-12 20:38:00,
2013-01-12 13:44:00,12.7,4.5,30.18,SSW,202,8.0,8.0,69,0.00,,---,0.00,VWS V13.01,2013-01-12 20:44:00,
2013-01-12 13:49:00,13.1,4.8,30.18,SSW,202,5.8,5.8,69,0.00,,---,0.00,VWS V13.01,2013-01-12 20:49:00,
2013-01-12 13:54:00,13.2,4.9,30.18,South,180,6.0,6.0,69,0.00,,---,0.00,VWS V13.01,2013-01-12 20:54:00,
2013-01-12 13:59:00,13.2,4.9,30.18,SSW,202,7.1,7.1,69,0.00,,---,0.00,VWS V13.01,2013-01-12 20:59:00,
2013-01-12 14:04:00,13.6,5.0,30.18,SSW,202,4.9,8.5,68,0.00,,---,0.00,VWS V13.01,2013-01-12 21:04:00,
2013-01-12 14:09:00,13.8,5.2,30.18,SSW,202,6.9,6.9,68,0.00,,---,0.00,VWS V13.01,2013-01-12 21:09:00,
2013-01-12 14:15:00,14.1,5.5,30.18,SSW,202,5.3,5.3,68,0.00,,---,0.00,VWS V13.01,2013-01-12 21:15:00,
2013-01-12 14:20:00,14.1,5.5,30.18,SSW,202,10.9,10.9,68,0.00,,---,0.00,VWS V13.01,2013-01-12 21:20:00,
2013-01-12 14:25:00,14.5,5.9,30.18,SSW,202,7.1,7.1,68,0.00,,---,0.00,VWS V13.01,2013-01-12 21:25:00,
2013-01-12 14:30:00,14.7,6.1,30.18,SSW,202,6.9,6.9,68,0.00,,---,0.00,VWS V13.01,2013-01-12 21:30:00,
2013-01-12 14:35:00,14.7,5.8,30.18,WSW,248,5.3,5.3,67,0.00,,---,0.00,VWS V13.01,2013-01-12 21:35:00,
2013-01-12 14:40:00,14.9,5.9,30.19,SW,225,7.1,8.9,67,0.00,,---,0.00,VWS V13.01,2013-01-12 21:40:00,
2013-01-12 14:45:00,15.0,6.0,30.18,South,180,4.2,4.2,67,0.00,,---,0.00,VWS V13.01,2013-01-12 21:45:00,
2013-01-12 14:51:00,15.2,6.2,30.18,SSW,202,10.9,10.9,67,0.00,,---,0.00,VWS V13.01,2013-01-12 21:51:00,
2013-01-12 14:56:00,15.4,6.4,30.18,South,180,6.7,6.7,67,0.00,,---,0.00,VWS V13.01,2013-01-12 21:56:00,
2013-01-12 15:01:00,15.4,6.4,30.18,SW,225,8.7,8.7,67,0.00,,---,0.00,VWS V13.01,2013-01-12 22:01:00,
2013-01-12 15:06:00,15.6,6.6,30.18,South,180,7.6,7.6,67,0.00,,---,0.00,VWS V13.01,2013-01-12 22:06:00,
2013-01-12 15:11:00,15.6,6.6,30.19,SSW,202,5.8,5.8,67,0.00,,---,0.00,VWS V13.01,2013-01-12 22:11:00,
2013-01-12 15:16:00,15.6,6.3,30.19,SSW,202,4.9,4.9,66,0.00,,---,0.00,VWS V13.01,2013-01-12 22:16:00,
2013-01-12 15:21:00,15.6,6.3,30.18,SSW,202,3.3,11.4,66,0.00,,---,0.00,VWS V13.01,2013-01-12 22:21:00,
2013-01-12 15:26:00,15.6,6.3,30.19,SSW,202,8.0,8.0,66,0.00,,---,0.00,VWS V13.01,2013-01-12 22:26:00,
2013-01-12 15:31:00,15.6,6.3,30.18,SW,225,6.9,6.9,66,0.00,,---,0.00,VWS V13.01,2013-01-12 22:31:00,
2013-01-12 15:36:00,15.6,6.3,30.18,SW,225,3.3,6.7,66,0.00,,---,0.00,VWS V13.01,2013-01-12 22:36:00,
2013-01-12 15:42:00,15.6,6.3,30.18,WSW,248,8.9,8.9,66,0.00,,---,0.00,VWS V13.01,2013-01-12 22:42:00,
2013-01-12 15:47:00,15.6,6.3,30.18,SSW,202,7.3,8.0,66,0.00,,---,0.00,VWS V13.01,2013-01-12 22:47:00,
2013-01-12 15:52:00,15.4,5.8,30.19,SSW,202,6.4,6.4,65,0.00,,---,0.00,VWS V13.01,2013-01-12 22:52:00,
2013-01-12 15:57:00,15.4,5.8,30.18,SSW,202,6.7,6.7,65,0.00,,---,0.00,VWS V13.01,2013-01-12 22:57:00,
2013-01-12 16:02:00,15.2,5.6,30.19,SW,225,9.8,9.8,65,0.00,,---,0.00,VWS V13.01,2013-01-12 23:02:00,
2013-01-12 16:08:00,15.0,5.4,30.19,SW,225,4.0,5.8,65,0.00,,---,0.00,VWS V13.01,2013-01-12 23:08:00,
2013-01-12 16:13:00,14.9,5.3,30.18,SSW,202,9.8,9.8,65,0.00,,---,0.00,VWS V13.01,2013-01-12 23:13:00,
2013-01-12 16:18:00,14.9,5.3,30.19,SW,225,5.8,5.8,65,0.00,,---,0.00,VWS V13.01,2013-01-12 23:18:00,
2013-01-12 16:23:00,14.9,5.3,30.19,SW,225,10.0,10.0,65,0.00,,---,0.00,VWS V13.01,2013-01-12 23:23:00,
2013-01-12 16:28:00,14.7,5.1,30.19,SW,225,0.0,0.0,65,0.00,,---,0.00,VWS V13.01,2013-01-12 23:28:00,
2013-01-12 16:33:00,14.7,5.1,30.19,WSW,248,6.0,6.0,65,0.00,,---,0.00,VWS V13.01,2013-01-12 23:33:00,
2013-01-12 16:38:00,14.7,5.4,30.19,SSW,202,4.4,4.4,66,0.00,,---,0.00,VWS V13.01,2013-01-12 23:38:00,
2013-01-12 16:44:00,14.5,5.2,30.19,South,180,5.5,6.2,66,0.00,,---,0.00,VWS V13.01,2013-01-12 23:44:00,
2013-01-12 16:49:00,14.5,5.2,30.19,SSW,202,5.5,7.3,66,0.00,,---,0.00,VWS V13.01,2013-01-12 23:49:00,
2013-01-12 16:54:00,14.3,5.0,30.19,SSW,202,7.1,7.1,66,0.00,,---,0.00,VWS V13.01,2013-01-12 23:54:00,
2013-01-12 16:59:00,14.1,4.8,30.19,SSW,202,6.0,6.0,66,0.00,,---,0.00,VWS V13.01,2013-01-12 23:59:00,
2013-01-12 17:04:00,14.1,4.8,30.19,SSW,202,6.2,6.2,66,0.00,,---,0.00,VWS V13.01,2013-01-13 00:04:00,
2013-01-12 17:09:00,14.1,4.8,30.19,SSW,202,7.6,7.6,66,0.00,,---,0.00,VWS V13.01,2013-01-13 00:09:00,
2013-01-12 17:15:00,13.8,4.6,30.19,SSW,202,4.0,4.0,66,0.00,,---,0.00,VWS V13.01,2013-01-13 00:15:00,
2013-01-12 17:20:00,13.8,4.6,30.19,South,180,5.8,5.8,66,0.00,,---,0.00,VWS V13.01,2013-01-13 00:20:00,
2013-01-12 17:25:00,13.8,4.6,30.20,SSW,202,2.0,3.8,66,0.00,,---,0.00,VWS V13.01,2013-01-13 00:25:00,
2013-01-12 17:30:00,13.6,4.4,30.20,SSW,202,6.2,6.2,66,0.00,,---,0.00,VWS V13.01,2013-01-13 00:30:00,
2013-01-12 17:35:00,13.6,4.4,30.20,SSW,202,5.5,5.5,66,0.00,,---,0.00,VWS V13.01,2013-01-13 00:35:00,
2013-01-12 17:40:00,13.6,4.7,30.20,South,180,5.5,5.5,67,0.00,,---,0.00,VWS V13.01,2013-01-13 00:40:00,
2013-01-12 17:45:00,13.6,4.7,30.19,SSW,202,5.5,5.5,67,0.00,,---,0.00,VWS V13.01,2013-01-13 00:45:00,
2013-01-12 17:50:00,13.6,4.7,30.19,SSW,202,3.5,3.5,67,0.00,,---,0.00,VWS V13.01,2013-01-13 00:50:00,
2013-01-12 17:55:00,13.6,4.7,30.19,SSW,202,8.9,8.9,67,0.00,,---,0.00,VWS V13.01,2013-01-13 00:55:00,
2013-01-12 18:00:00,13.4,4.5,30.19,SSW,202,2.6,2.6,67,0.00,,---,0.00,VWS V13.01,2013-01-13 01:00:00,
2013-01-12 18:06:00,13.2,4.3,30.20,SSW,202,4.0,4.0,67,0.00,,---,0.00,VWS V13.01,2013-01-13 01:06:00,
2013-01-12 18:11:00,13.2,4.6,30.20,SSW,202,2.2,2.2,68,0.00,,---,0.00,VWS V13.01,2013-01-13 01:11:00,
2013-01-12 18:16:00,13.2,4.6,30.20,SSW,202,0.0,1.5,68,0.00,,---,0.00,VWS V13.01,2013-01-13 01:16:00,
2013-01-12 18:21:00,13.2,4.6,30.20,SSW,202,6.2,6.2,68,0.00,,---,0.00,VWS V13.01,2013-01-13 01:21:00,
2013-01-12 18:26:00,13.2,4.6,30.20,SSW,202,1.5,1.5,68,0.00,,---,0.00,VWS V13.01,2013-01-13 01:26:00,
2013-01-12 18:31:00,13.2,4.6,30.20,SSW,202,2.6,6.0,68,0.00,,---,0.00,VWS V13.01,2013-01-13 01:31:00,
2013-01-12 18:36:00,13.1,4.8,30.20,SW,225,6.2,6.2,69,0.00,,---,0.00,VWS V13.01,2013-01-13 01:36:00,
2013-01-12 18:41:00,13.1,4.8,30.20,SSW,202,6.2,6.2,69,0.00,,---,0.00,VWS V13.01,2013-01-13 01:41:00,
2013-01-12 18:46:00,12.9,4.7,30.20,SSW,202,0.0,2.0,69,0.00,,---,0.00,VWS V13.01,2013-01-13 01:46:00,
2013-01-12 18:51:00,12.7,4.5,30.20,SSW,202,6.0,7.6,69,0.00,,---,0.00,VWS V13.01,2013-01-13 01:51:00,
2013-01-12 18:56:00,12.7,4.5,30.20,SSW,202,0.0,0.0,69,0.00,,---,0.00,VWS V13.01,2013-01-13 01:56:00,
2013-01-12 19:01:00,12.7,4.5,30.20,SSW,202,0.0,0.0,69,0.00,,---,0.00,VWS V13.01,2013-01-13 02:01:00,
2013-01-12 19:06:00,12.7,4.5,30.21,SSW,202,0.0,0.0,69,0.00,,---,0.00,VWS V13.01,2013-01-13 02:06:00,
2013-01-12 19:12:00,12.5,4.6,30.21,SSW,202,0.0,0.0,70,0.00,,---,0.00,VWS V13.01,2013-01-13 02:12:00,
2013-01-12 19:17:00,12.5,4.6,30.21,SSW,202,0.0,0.0,70,0.00,,---,0.00,VWS V13.01,2013-01-13 02:17:00,
2013-01-12 19:22:00,12.5,4.6,30.21,SSW,202,4.0,4.0,70,0.00,,---,0.00,VWS V13.01,2013-01-13 02:22:00,
2013-01-12 19:28:00,12.5,4.6,30.21,SSW,202,0.0,0.0,70,0.00,,---,0.00,VWS V13.01,2013-01-13 02:28:00,
2013-01-12 19:33:00,12.5,4.6,30.21,SSW,202,0.0,0.0,70,0.00,,---,0.00,VWS V13.01,2013-01-13 02:33:00,
2013-01-12 19:38:00,12.5,4.6,30.21,SSW,202,0.0,0.0,70,0.00,,---,0.00,VWS V13.01,2013-01-13 02:38:00,
2013-01-12 19:43:00,12.5,4.6,30.21,South,180,0.0,0.0,70,0.00,,---,0.00,VWS V13.01,2013-01-13 02:43:00,
2013-01-12 19:48:00,12.3,4.4,30.21,SSW,202,0.0,0.8,70,0.00,,---,0.00,VWS V13.01,2013-01-13 02:48:00,
2013-01-12 19:53:00,12.2,4.3,30.21,SSW,202,0.0,0.0,70,0.00,,---,0.00,VWS V13.01,2013-01-13 02:53:00,
2013-01-12 19:58:00,12.2,4.3,30.21,SSW,202,0.0,0.0,70,0.00,,---,0.00,VWS V13.01,2013-01-13 02:58:00,
2013-01-12 20:03:00,12.0,4.1,30.21,SSW,202,0.0,0.0,70,0.00,,---,0.00,VWS V13.01,2013-01-13 03:03:00,
2013-01-12 20:08:00,12.0,4.1,30.21,SSW,202,0.0,0.0,70,0.00,,---,0.00,VWS V13.01,2013-01-13 03:08:00,
2013-01-12 20:13:00,12.0,4.1,30.21,SSW,202,0.0,0.0,70,0.00,,---,0.00,VWS V13.01,2013-01-13 03:13:00,
2013-01-12 20:18:00,12.0,4.1,30.21,SSW,202,0.0,0.0,70,0.00,,---,0.00,VWS V13.01,2013-01-13 03:18:00,
2013-01-12 20:23:00,11.8,3.9,30.21,SSW,202,0.0,0.0,70,0.00,,---,0.00,VWS V13.01,2013-01-13 03:23:00,
2013-01-12 20:29:00,11.6,4.0,30.21,SSW,202,0.0,0.0,71,0.00,,---,0.00,VWS V13.01,2013-01-13 03:29:00,
2013-01-12 20:34:00,11.4,3.8,30.21,SSW,202,0.0,0.0,71,0.00,,---,0.00,VWS V13.01,2013-01-13 03:34:00,
2013-01-12 20:39:00,11.4,3.8,30.20,SSW,202,4.6,4.6,71,0.00,,---,0.00,VWS V13.01,2013-01-13 03:39:00,
2013-01-12 20:44:00,11.3,3.7,30.20,South,180,4.4,4.4,71,0.00,,---,0.00,VWS V13.01,2013-01-13 03:44:00,
2013-01-12 20:49:00,11.1,3.5,30.20,SSW,202,4.9,6.0,71,0.00,,---,0.00,VWS V13.01,2013-01-13 03:49:00,
2013-01-12 20:54:00,11.1,3.5,30.20,SSW,202,6.9,6.9,71,0.00,,---,0.00,VWS V13.01,2013-01-13 03:54:00,
2013-01-12 20:59:00,10.9,3.4,30.20,SSW,202,7.1,7.1,71,0.00,,---,0.00,VWS V13.01,2013-01-13 03:59:00,
2013-01-12 21:04:00,10.7,3.2,30.20,SSW,202,7.1,7.1,71,0.00,,---,0.00,VWS V13.01,2013-01-13 04:04:00,
2013-01-12 21:09:00,10.5,3.0,30.20,SSW,202,5.5,5.5,71,0.00,,---,0.00,VWS V13.01,2013-01-13 04:09:00,
2013-01-12 21:14:00,10.2,2.7,30.20,SSW,202,6.2,6.2,71,0.00,,---,0.00,VWS V13.01,2013-01-13 04:14:00,
2013-01-12 21:20:00,10.2,2.7,30.20,SSW,202,6.7,6.7,71,0.00,,---,0.00,VWS V13.01,2013-01-13 04:20:00,
2013-01-12 21:25:00,10.2,2.7,30.20,South,180,7.3,8.9,71,0.00,,---,0.00,VWS V13.01,2013-01-13 04:25:00,
2013-01-12 21:30:00,10.0,2.5,30.20,South,180,6.0,6.0,71,0.00,,---,0.00,VWS V13.01,2013-01-13 04:30:00,
2013-01-12 21:36:00,9.6,2.1,30.20,SW,225,3.3,7.8,71,0.00,,---,0.00,VWS V13.01,2013-01-13 04:36:00,
2013-01-12 21:41:00,9.6,2.1,30.20,SW,225,0.0,0.0,71,0.00,,---,0.00,VWS V13.01,2013-01-13 04:41:00,
2013-01-12 21:46:00,9.5,2.0,30.20,SSW,202,6.7,6.7,71,0.00,,---,0.00,VWS V13.01,2013-01-13 04:46:00,
2013-01-12 21:52:00,9.3,1.8,30.21,SSW,202,6.7,6.7,71,0.00,,---,0.00,VWS V13.01,2013-01-13 04:52:00,
2013-01-12 21:57:00,9.3,1.8,30.21,SSW,202,3.8,3.8,71,0.00,,---,0.00,VWS V13.01,2013-01-13 04:57:00,
2013-01-12 22:02:00,9.3,2.1,30.21,SSW,202,4.4,4.4,72,0.00,,---,0.00,VWS V13.01,2013-01-13 05:02:00,
2013-01-12 22:03:00,9.3,2.1,30.21,SSW,202,4.4,4.4,72,0.00,,---,0.00,VWS V13.01,2013-01-13 05:03:00,
2013-01-12 22:04:00,9.3,2.1,30.20,SSW,202,0.0,0.0,72,0.00,,---,0.00,VWS V13.01,2013-01-13 05:04:00,
2013-01-12 22:09:00,9.3,2.1,30.21,SSW,202,2.0,2.0,72,0.00,,---,0.00,VWS V13.01,2013-01-13 05:09:00,
2013-01-12 22:14:00,9.5,2.3,30.21,SSW,202,3.3,3.3,72,0.00,,---,0.00,VWS V13.01,2013-01-13 05:14:00,
2013-01-12 22:19:00,9.6,2.4,30.20,SSW,202,0.0,0.0,72,0.00,,---,0.00,VWS V13.01,2013-01-13 05:19:00,
2013-01-12 22:24:00,9.6,2.4,30.20,SSW,202,0.0,0.0,72,0.00,,---,0.00,VWS V13.01,2013-01-13 05:24:00,
2013-01-12 22:29:00,9.6,2.4,30.20,SW,225,4.6,4.6,72,0.00,,---,0.00,VWS V13.01,2013-01-13 05:29:00,
2013-01-12 22:34:00,9.6,2.4,30.21,WSW,248,6.2,6.2,72,0.00,,---,0.00,VWS V13.01,2013-01-13 05:34:00,
2013-01-12 22:39:00,9.6,2.4,30.21,SSW,202,3.8,3.8,72,0.00,,---,0.00,VWS V13.01,2013-01-13 05:39:00,
2013-01-12 22:44:00,9.6,2.4,30.21,SSW,202,0.0,4.0,72,0.00,,---,0.00,VWS V13.01,2013-01-13 05:44:00,
2013-01-12 22:49:00,9.5,2.3,30.21,SSW,202,8.0,8.0,72,0.00,,---,0.00,VWS V13.01,2013-01-13 05:49:00,
2013-01-12 22:54:00,9.3,2.1,30.21,SW,225,5.3,5.3,72,0.00,,---,0.00,VWS V13.01,2013-01-13 05:54:00,
2013-01-12 22:59:00,9.1,1.6,30.21,South,180,0.0,6.2,71,0.00,,---,0.00,VWS V13.01,2013-01-13 05:59:00,
2013-01-12 23:04:00,9.1,1.6,30.21,SSW,202,0.0,0.0,71,0.00,,---,0.00,VWS V13.01,2013-01-13 06:04:00,
2013-01-12 23:09:00,8.9,1.4,30.21,SW,225,4.4,4.4,71,0.00,,---,0.00,VWS V13.01,2013-01-13 06:09:00,
2013-01-12 23:14:00,8.7,1.2,30.21,SW,225,0.0,0.0,71,0.00,,---,0.00,VWS V13.01,2013-01-13 06:14:00,
2013-01-12 23:19:00,8.7,1.2,30.21,SW,225,0.0,0.0,71,0.00,,---,0.00,VWS V13.01,2013-01-13 06:19:00,
2013-01-12 23:25:00,8.6,1.1,30.21,SSW,202,1.5,6.2,71,0.00,,---,0.00,VWS V13.01,2013-01-13 06:25:00,
2013-01-12 23:30:00,8.4,0.9,30.21,SSW,202,0.0,0.0,71,0.00,,---,0.00,VWS V13.01,2013-01-13 06:30:00,
2013-01-12 23:35:00,8.4,0.9,30.22,SSW,202,0.0,0.0,71,0.00,,---,0.00,VWS V13.01,2013-01-13 06:35:00,
2013-01-12 23:40:00,8.4,0.9,30.21,SSW,202,0.0,0.0,71,0.00,,---,0.00,VWS V13.01,2013-01-13 06:40:00,
2013-01-12 23:45:00,8.4,0.9,30.22,SSW,202,0.0,0.0,71,0.00,,---,0.00,VWS V13.01,2013-01-13 06:45:00,
2013-01-12 23:50:00,8.2,0.8,30.22,SSW,202,0.0,0.0,71,0.00,,---,0.00,VWS V13.01,2013-01-13 06:50:00,
2013-01-12 23:55:00,8.2,0.8,30.22,South,180,3.3,3.3,71,0.00,,---,0.00,VWS V13.01,2013-01-13 06:55:00,